Home   Weather   Beirut   Past weeks

Flag for Lebanon Past Weather in Beirut, Lebanon — Yesterday and Last 2 Weeks

Now
66 °F

Sunny.


Feels Like: 66 °F
Forecast: 54 / 62 °F
Wind: 3 mph from Southwest

Location: Beirut Airport

Current Time: Jan 18, 2017 at 2:21:35 pm

Latest Report: Jan 18, 2017 at 2:00 pm


Visibility: N/A

Pressure: 30.09 "Hg

Humidity: 56%

Dew Point: 50 °F

Location of BeirutLocation

Past Weather in Beirut — Graph

°F

Beirut Temperature Yesterday

Maximum temperature yesterday: 68 °F (at 4:00 pm)
Minimum temperature yesterday: 52 °F (at 7:00 am)
Average temperature yesterday: 59 °F

High & Low Weather Summary for the Past Weeks

 TemperatureHumidityPressure
High68 °F (Jan 17, 4:00 pm)94% (Jan 15, 1:00 am)30.33 "Hg (Jan 15, 1:00 am)
Low48 °F (Jan 9, 5:00 am)30% (Jan 17, 4:00 pm)29.86 "Hg (Jan 8, 2:00 pm)
Average57 °F60%30.11 "Hg
* Reported Jan 3 12:00 pm — Jan 18 12:00 pm, Beirut, Weather by CustomWeather, © 2017

Note: Actual official high and low records may vary slightly from our data, if they occured in-between our weather recording intervals... More about our weather records

Advertising

Beirut Weather History for the Previous 24 Hours

Scroll right to see more
 ConditionsComfort  
Time TempWeatherWind HumidityBarometerVisibility
12:00 pm
Wed, Jan 18
66 °FPassing clouds.5 mph56%30.09 "HgN/A
11:00 am66 °FPassing clouds.5 mph52%30.09 "HgN/A
10:00 am66 °FSunny.5 mph49%30.09 "Hg10 mi
9:00 am63 °FSunny.5 mph45%30.09 "Hg10 mi
8:00 am57 °FPassing clouds.5 mph55%30.09 "Hg5 mi
7:00 am55 °FPassing clouds.6 mph59%30.07 "Hg5 mi
6:00 am55 °FPassing clouds.5 mph59%30.04 "HgN/A
5:00 am55 °FClear.1 mph59%30.01 "Hg5 mi
4:00 am55 °FClear.No wind59%30.01 "Hg5 mi
3:00 am57 °FClear.2 mph59%30.04 "Hg5 mi
2:00 am57 °FClear.3 mph55%30.04 "Hg4 mi
1:00 am57 °FClear.No wind55%30.07 "Hg4 mi
12:00 am57 °FClear.2 mph59%30.04 "Hg5 mi
11:00 pm
Tue, Jan 17
59 °FClear.2 mph51%30.04 "Hg5 mi
10:00 pm59 °FClear.2 mph51%30.04 "Hg5 mi
9:00 pm59 °FClear.6 mph55%30.04 "Hg5 mi
8:00 pm61 °FClear.6 mph52%30.04 "Hg5 mi
7:00 pm61 °FClear.6 mph48%30.04 "Hg5 mi
6:00 pm63 °FClear.5 mph45%30.04 "Hg5 mi
5:00 pm66 °FClear.5 mph32%30.04 "Hg5 mi
4:00 pm68 °FSunny.6 mph30%30.04 "Hg4 mi
3:00 pm66 °FSunny.7 mph49%30.07 "Hg5 mi
2:00 pm66 °FSunny.7 mph56%30.04 "Hg5 mi
Weather by CustomWeather, © 2017

See weather overviewHow to use our weather pages